Location: Newark
(40.7060°N, 73.9980°W)
Time: 14:16:55
(UTC+00:00)

N. Korean satellite - Visible Passes

Search period start: 25 February 2021 00:00
Search period end: 07 March 2021 00:00
Orbit: 451 x 503 km, 97.2° (Epoch: 24 February)

Date Brightness Start Highest point End Pass type
(mag) Time Alt. Az. Time Alt. Az. Time Alt. Az.
25 Feb 8.9 09:44:05 10° NE 09:47:00 25° E 09:49:57 10° SSE visible
26 Feb 9.9 09:18:50 10° ENE 09:20:07 12° E 09:21:25 10° ESE visible
26 Feb 7.0 10:50:19 10° N 10:53:35 38° WNW 10:56:52 10° SW visible
27 Feb 6.5 10:23:24 10° NNE 10:26:56 89° ESE 10:30:28 10° SSW visible
28 Feb 8.1 09:56:52 10° NNE 10:00:10 37° E 10:03:30 10° SSE visible
01 Mar 9.5 09:30:55 10° NE 09:33:19 17° E 09:35:45 10° SE visible
02 Mar 6.5 10:36:30 10° N 10:40:00 59° WNW 10:43:30 10° SSW visible
03 Mar 7.2 10:09:45 10° NNE 10:13:16 57° E 10:16:47 10° S visible
04 Mar 8.9 09:43:27 10° NE 09:46:26 25° E 09:49:27 10° SSE visible
05 Mar 9.9 09:18:06 10° ENE 09:19:31 12° E 09:20:56 10° ESE visible
05 Mar 7.0 10:49:38 10° N 10:52:58 39° WNW 10:56:20 10° SW visible
06 Mar 6.5 10:22:41 10° NNE 10:26:16 88° E 10:29:53 10° SSW visible
